Regional Weather Roundup
Issued by NWS

Home | Current Version | Previous Version | Graphics & Text | Print | Product List | Glossary Off
Versions: 1 2 3 4 5 6 7 8 9 10 11 12 13 14 15 16 17 18 19 20 21 22 23 24 25 26 27 28 29 30 31 32 33 34 35 36 37 38 39 40 41 42 43 44 45 46 47 48 49 50

000
ASUS43 KTOP 201959
RWRKS

WEATHER ROUNDUP FOR KANSAS
NATIONAL WEATHER SERVICE GOODLAND KS
300 PM CDT WED SEP 20 2017

NOTE:  "FAIR" INDICATES FEW OR NO CLOUDS BELOW 12,000 FEET WITH NO
SIGNIFICANT WEATHER AND/OR OBSTRUCTIONS TO VISIBILITY.

KSZ001>006-013>018-027>032-041>047-202100-
NORTHWEST KANSAS

CITY           SKY/WX    TMP DP  RH WIND       PRES   REMARKS
GOODLAND       SUNNY     75  28  17 E7        29.94F
HAYS           SUNNY     83  40  21 N12G18    29.86F
HILL CITY      SUNNY     81  35  19 N6        29.89F
RUSSELL        SUNNY     85  42  22 NE13      29.84F
$$

KSZ061>065-074>080-084>089-202100-
SOUTHWEST KANSAS

CITY           SKY/WX    TMP DP  RH WIND       PRES   REMARKS
DODGE CITY     SUNNY     85  41  21 NE10G21   29.88F
ELKHART          N/A     76  42  29 E6          N/A
GARDEN CITY    SUNNY     81  32  17 E5G17     29.90F
GREAT BEND     SUNNY     83  50  31 E7G18     29.84F
LIBERAL        SUNNY     81  43  26 E10       29.91F
$$

KSZ066>073-081>083-090>101-202100-
SOUTHEAST KANSAS

CITY           SKY/WX    TMP DP  RH WIND       PRES   REMARKS
CHANUTE        MOSUNNY   89  73  59 S15       29.80F HX  97
COFFEYVILLE    MOSUNNY   92  74  55 S15G22    29.79F HX 101
HUTCHINSON     SUNNY     84  57  39 VRB3      29.81F
MEDICINE LODGE   N/A     86  55  34 N6        29.81F
NEWTON         SUNNY     86  63  45 SW6       29.82F
WICHITA INTL   MOSUNNY   90  65  43 SW9       29.79F
WICHITA JABRA  MOSUNNY   88  68  51 S13       29.80F
WINFIELD       PTSUNNY   90  71  53 S14       29.80F HX  96
$$

KSZ007>012-019>026-033>040-048>060-102>105-202100-
NORTHEAST KANSAS

CITY           SKY/WX    TMP DP  RH WIND       PRES   REMARKS
CONCORDIA      SUNNY     83  56  39 N9        29.83S
EMPORIA        MOSUNNY   86  69  56 SW14G21   29.80F
LAWRENCE       PTSUNNY   87  73  62 S10       29.79F
MANHATTAN      PTSUNNY   88  65  46 N5        29.79F
OLATHE IND     CLOUDY    86  73  65 SW13      29.82S
OLATHE EXE     CLOUDY    85  73  67 SW8       29.82S
SALINA         SUNNY     87  54  32 NE9G18    29.81F
TOPEKA BILLARD MOSUNNY   89  70  53 S10G17    29.78F
TOPEKA FORBES  PTSUNNY   89  70  53 SW12      29.79F
$$




USA.gov is the U.S. government's official web portal to all federal, state and local government web resources and services.